Regional Weather Roundup
Issued by NWS Sioux Falls, SD

Home | Current Version | Previous Version | Graphics & Text | Print | Product List | Glossary On
Versions: 1 2 3 4 5 6 7 8 9 10 11 12 13 14 15 16 17 18 19 20 21 22 23 24 25 26 27 28 29 30 31 32 33 34 35 36 37 38 39 40 41 42 43 44 45 46 47 48 49 50
000
ASUS43 KFSD 201210
RWRFSD

WEATHER ROUNDUP FOR SE SOUTH DAKOTA/SW MINNESOTA/NW IOWA
NATIONAL WEATHER SERVICE SIOUX FALLS SD
600 AM CST FRI JAN 20 2017

NOTE: "FAIR" INDICATES FEW OR NO CLOUDS BELOW 12,000 FEET WITH NO
SIGNIFICANT WEATHER AND OR OBSTRUCTIONS TO VISIBILITY.


SDZ038>040-050-052>070-201300-
SOUTHEAST SOUTH DAKOTA

CITY           SKY/WX    TMP DP  RH WIND       PRES   REMARKS
BROOKINGS      CLOUDY    35  34  96 SE10      29.49S FOG     WCI  27
CHAMBERLAIN    CLEAR     32  32 100 SE3       29.39F
6HR MIN TEMP:  32; 6HR MAX TEMP:  39;

HURON          CLOUDY    36  36 100 SE8       29.43S
6HR MIN TEMP:  36; 6HR MAX TEMP:  37;

MADISON        CLOUDY    36  36 100 SE12        N/A
MITCHELL       CLOUDY    38  37  97 SE10      29.44F
6HR MIN TEMP:  38; 6HR MAX TEMP:  39;

SIOUX FALLS    CLOUDY    37  37 100 SE9       29.51S FOG
6HR MIN TEMP:  37; 6HR MAX TEMP:  38; 6HR PCP: TRACE;

WINNER         FAIR      27  25  92 SW6       29.37F WCI  20
YANKTON        MOCLDY    37  34  87 SE10      29.47F
$$

MNZ071-072-080-081-089-090-097-098-201300-
SOUTHWEST MINNESOTA

CITY           SKY/WX    TMP DP  RH WIND       PRES   REMARKS
FAIRMONT       CLOUDY    33  33 100 SE8       29.60S FOG     WCI  26
JACKSON        FOG       32  32 100 S8        29.58F VSB 3/4 WCI  25
LUVERNE        CLOUDY    36  34  93 SE7       29.54S FOG
MARSHALL       CLOUDY    34  34 100 SE10      29.56S FOG     WCI  26
6HR MIN TEMP:  34; 6HR MAX TEMP:  35;

MONTEVIDEO     CLOUDY    34  34 100 S8        29.59S FOG     WCI  27
PIPESTONE      FOG       36  36 100 SE8       29.52R VSB 1/2
REDWOOD FALLS  CLOUDY    34  32  92 SE7       29.58F FOG     WCI  28
TRACY          CLOUDY    35  35 100 SE6       29.56F FOG     WCI  30
WINDOM         FOG       34  34 100 SE5       29.57F VSB 3/4 WCI  30
WORTHINGTON    FOG       34  33  96 E6          N/A  VSB 1/2 WCI  29
$$

IAZ001>003-012>014-020>022-031-032-NEZ013-014-SDZ071-201300-
NORTHWEST IOWA

CITY           SKY/WX    TMP DP  RH WIND       PRES   REMARKS
CHEROKEE       CLOUDY    37  37 100 CALM      29.56F FOG
DENISON        CLOUDY    37  37 100 E6        29.54F FOG
ESTHERVILLE    FOG       33  33 100 S7        29.58F VSB 1   WCI  27
LE MARS        CLOUDY    37  37 100 SE10      29.55S FOG
ORANGE CITY    CLOUDY    37  37 100 SE3       29.54F FOG
SHELDON        CLOUDY    36  36 100 SE8       29.53F FOG
SIOUX CITY     CLOUDY    38  38 100 SE8       29.54S FOG
6HR MIN TEMP:  37; 6HR MAX TEMP:  39;

SPENCER        CLOUDY    35  34  96 E6        29.57F
6HR MIN TEMP:  34; 6HR MAX TEMP:  35;

STORM LAKE     FOG       34  34 100 E6        29.56F VSB 1/4 WCI  29
$$

ABBREVIATIONS USED IN REMARKS
   TC - TEMPERATURE IN CELSIUS
  WCI - WIND CHILL INDEX
   HX - HEAT INDEX
  VSB - VISIBILITY





USA.gov is the U.S. government's official web portal to all federal, state and local government web resources and services.